This is the latest recevied weather packets stored in our database for station/object KC4KQE. If no packets are shown the sender has not sent any weather packets the latest 10 day(s).
| Time | Temp. | Humidity | Pressure | Rain* | Wind** | Luminosity | Snow |
|---|---|---|---|---|---|---|---|
| 1776889454 | 28.89° C | 15% | 1014.7 hPa | 0 mm | - | 823 W/m² | - |
| 1776889154 | 28.89° C | 15% | 1014.8 hPa | 0 mm | - | 877 W/m² | - |
| 1776888855 | 28.89° C | 15% | 1014.8 hPa | 0 mm | - | 877 W/m² | - |
| 1776888556 | 28.89° C | 15% | 1014.9 hPa | 0 mm | - | 856 W/m² | - |
| 1776888254 | 29.44° C | 13% | 1014.9 hPa | 0 mm | - | 738 W/m² | - |
| 1776887954 | 28.33° C | 17% | 1015 hPa | 0 mm | - | 819 W/m² | - |
| 1776887654 | 28.89° C | 16% | 1015 hPa | 0 mm | - | 831 W/m² | - |
| 1776887354 | 28.89° C | 16% | 1015.1 hPa | 0 mm | - | 867 W/m² | - |
| 1776887055 | 28.89° C | 16% | 1015 hPa | 0 mm | - | 853 W/m² | - |
| 1776886754 | 28.33° C | 16% | 1015.1 hPa | 0 mm | - | 751 W/m² | - |
| 1776886454 | 27.78° C | 17% | 1015.1 hPa | 0 mm | - | 861 W/m² | - |
| 1776886154 | 28.33° C | 17% | 1015.2 hPa | 0 mm | - | 816 W/m² | - |
| 1776885854 | 28.33° C | 17% | 1015.2 hPa | 0 mm | - | 780 W/m² | - |
| 1776885554 | 28.33° C | 17% | 1015.3 hPa | 0 mm | - | 831 W/m² | - |
| 1776885254 | 27.78° C | 16% | 1015.4 hPa | 0 mm | - | 870 W/m² | - |
| 1776884954 | 28.33° C | 16% | 1015.5 hPa | 0 mm | - | 835 W/m² | - |
| 1776884654 | 27.78° C | 16% | 1015.6 hPa | 0 mm | - | 756 W/m² | - |
| 1776884354 | 27.78° C | 16% | 1015.6 hPa | 0 mm | - | 814 W/m² | - |
| 1776884054 | 28.33° C | 16% | 1015.8 hPa | 0 mm | - | 895 W/m² | - |
| 1776883754 | 28.33° C | 16% | 1015.9 hPa | 0 mm | - | 909 W/m² | - |
| 1776883454 | 28.33° C | 15% | 1016 hPa | 0 mm | - | 868 W/m² | - |
| 1776883154 | 27.78° C | 15% | 1016.1 hPa | 0 mm | - | 840 W/m² | - |
| 1776882854 | 27.78° C | 16% | 1016.1 hPa | 0 mm | - | 810 W/m² | - |
| 1776882554 | 27.22° C | 16% | 1016.2 hPa | 0 mm | - | 947 W/m² | - |
| 1776882254 | 27.22° C | 15% | 1016.2 hPa | 0 mm | - | 889 W/m² | - |
* Rain latest hour (hover to see other rain measurements)
** Current wind speed in m/s (hover to see current wind gust speed)